LPR6 EPKX-EPKX

Flight info

Callsign LPR6
Flight time 0h 16m
Altitude 2000
Route DCT
Aircraft EC35/L-S/C

Departure

Time 2026-04-24 16:51
Airport Kokotowie LPR HEMS Heliport (EPKX)

Arrival

Time 2026-04-24 17:07
Airport Kokotowie LPR HEMS Heliport (EPKX)
Time Latitude Longitude Altitude Speed Heading
2026-04-24 16:41 50.02238 20.07033 664 ft 0 kts 150°
2026-04-24 16:48 50.02237 20.07033 664 ft 0 kts 151°
2026-04-24 16:50 50.02237 20.07022 656 ft 3 kts 150°
2026-04-24 16:51 50.02242 20.06977 758 ft 13 kts 223°
2026-04-24 16:51 50.02303 20.06780 1042 ft 40 kts 278°
2026-04-24 16:51 50.02428 20.06061 1159 ft 92 kts 285°
2026-04-24 16:51 50.02539 20.05015 1353 ft 100 kts 278°
2026-04-24 16:52 50.02639 20.03975 1666 ft 93 kts 284°
2026-04-24 16:52 50.02758 20.03002 1930 ft 88 kts 287°
2026-04-24 16:52 50.02890 20.01992 1823 ft 100 kts 285°
2026-04-24 16:52 50.03013 20.00902 1717 ft 105 kts 279°
2026-04-24 16:53 50.03095 19.99852 1744 ft 89 kts 276°
2026-04-24 16:53 50.03118 19.98980 1586 ft 71 kts 270°
2026-04-24 16:53 50.03114 19.98294 1348 ft 58 kts 263°
2026-04-24 16:53 50.03095 19.97714 1363 ft 54 kts 264°
2026-04-24 16:54 50.03086 19.97062 1300 ft 65 kts 267°
2026-04-24 16:54 50.03051 19.96321 1227 ft 73 kts 269°
2026-04-24 16:54 50.03085 19.95770 1253 ft 79 kts 276°
2026-04-24 16:54 50.03224 19.94928 1265 ft 82 kts 283°
2026-04-24 16:55 50.03396 19.94070 1321 ft 84 kts 283°
2026-04-24 16:55 50.03564 19.93074 1113 ft 98 kts 282°
2026-04-24 16:55 50.03697 19.92080 1193 ft 93 kts 280°
2026-04-24 16:55 50.03863 19.91082 1217 ft 95 kts 282°
2026-04-24 16:56 50.04041 19.90096 1229 ft 94 kts 285°
2026-04-24 16:56 50.04237 19.89124 1310 ft 95 kts 288°
2026-04-24 16:56 50.04471 19.88081 1355 ft 108 kts 285°
2026-04-24 16:56 50.04641 19.86901 1349 ft 115 kts 279°
2026-04-24 16:57 50.04817 19.85719 1343 ft 112 kts 282°
2026-04-24 16:57 50.05016 19.84566 1412 ft 98 kts 286°
2026-04-24 16:57 50.05173 19.83529 1475 ft 103 kts 280°
2026-04-24 16:57 50.05223 19.82370 1281 ft 117 kts 274°
2026-04-24 16:58 50.05281 19.81228 1508 ft 96 kts 278°
2026-04-24 16:58 50.05313 19.80179 1531 ft 101 kts 275°
2026-04-24 16:58 50.05392 19.79079 1439 ft 103 kts 277°
2026-04-24 16:58 50.05448 19.77938 1298 ft 103 kts 275°
2026-04-24 16:59 50.05453 19.76965 1145 ft 74 kts 265°
2026-04-24 16:59 50.05444 19.76402 1008 ft 37 kts 258°
2026-04-24 16:59 50.05393 19.75681 807 ft 19 kts 251°
2026-04-24 17:00 50.05388 19.75580 740 ft 9 kts 251°
2026-04-24 17:00 50.05388 19.75546 715 ft 0 kts 248°
2026-04-24 17:02 50.05388 19.75545 716 ft 0 kts 247°
2026-04-24 17:03 50.05481 19.75982 1049 ft 65 kts 67°
2026-04-24 17:03 50.05545 19.76968 1109 ft 109 kts 80°
2026-04-24 17:03 50.05703 19.78187 1262 ft 120 kts 68°
2026-04-24 17:04 50.05935 19.79455 1415 ft 125 kts 71°
2026-04-24 17:04 50.06390 19.82101 1787 ft 122 kts 66°
2026-04-24 17:04 50.06599 19.83330 1962 ft 117 kts 64°
2026-04-24 17:05 50.06826 19.84483 1947 ft 101 kts 58°
2026-04-24 17:05 50.07054 19.85474 1881 ft 93 kts 55°
2026-04-24 17:05 50.07529 19.87265 1738 ft 85 kts 54°
2026-04-24 17:06 50.07769 19.88070 1727 ft 79 kts 49°
2026-04-24 17:06 50.08199 19.89581 1664 ft 75 kts 72°
2026-04-24 17:06 50.08389 19.90425 1515 ft 91 kts 61°
2026-04-24 17:07 50.08533 19.91074 1421 ft 99 kts 60°
2026-04-24 17:07 50.08853 19.92430 1239 ft 88 kts 61°
2026-04-24 17:07 50.09074 19.93544 882 ft 24 kts 39°
2026-04-24 17:08 50.09111 19.93660 802 ft 0 kts 41°
2026-04-24 17:11 50.09097 19.93671 973 ft 9 kts 127°
2026-04-24 17:12 50.06361 19.97264 1251 ft 111 kts 148°